TimeEDT,TemperatureF,Dew PointF,Humidity,Sea Level PressureIn,VisibilityMPH,Wind Direction,Wind SpeedMPH,Gust SpeedMPH,PrecipitationIn,Events,Conditions,WindDirDegrees,DateUTC
12:58 AM,55.2,41.2,59,30.18,10.0,Variable,3.5,-,0.00,,Light Drizzle,0,2013-05-26 04:58:00
1:58 AM,55.9,44.8,66,30.17,10.0,NW,3.5,-,0.00,,Light Drizzle,310,2013-05-26 05:58:00
2:58 AM,57.9,41.4,54,30.17,10.0,NW,5.8,-,0.00,,Light Drizzle,320,2013-05-26 06:58:00
3:58 AM,57.4,39.6,51,30.18,10.0,North,5.8,-,0.00,,Light Drizzle,350,2013-05-26 07:58:00
4:58 AM,55.8,39.0,53,30.19,10.0,North,5.8,-,0.00,,Light Drizzle,10,2013-05-26 08:58:00
5:58 AM,54.3,37.0,52,30.20,10.0,North,6.9,-,0.00,,Light Drizzle,10,2013-05-26 09:58:00
6:58 AM,55.8,39.4,54,30.22,10.0,NNW,4.6,-,0.00,,Light Drizzle,340,2013-05-26 10:58:00
7:58 AM,57.2,38.3,49,30.24,10.0,North,6.9,-,0.00,,Light Drizzle,360,2013-05-26 11:58:00
8:58 AM,59.7,37.9,44,30.25,10.0,Variable,6.9,-,0.00,,Light Drizzle,0,2013-05-26 12:58:00
9:58 AM,61.9,38.7,42,30.25,10.0,NW,8.1,-,0.00,,Light Drizzle,320,2013-05-26 13:58:00
10:58 AM,64.0,37.6,38,30.24,10.0,West,10.4,-,0.00,,Light Drizzle,280,2013-05-26 14:58:00
11:58 AM,65.8,41.0,40,30.23,10.0,WNW,8.1,-,0.00,,Light Drizzle,290,2013-05-26 15:58:00
12:58 PM,67.1,38.5,35,30.21,10.0,WNW,8.1,-,0.00,,Light Drizzle,290,2013-05-26 16:58:00
1:58 PM,68.4,39.2,34,30.20,10.0,Variable,6.9,-,0.00,,Light Drizzle,0,2013-05-26 17:58:00
2:31 PM,68.0,37.4,33,30.17,10.0,WNW,10.4,-,N/A,,Clear,300,2013-05-26 18:31:00
2:58 PM,70.0,36.7,30,30.17,10.0,NW,10.4,-,0.00,,Clear,320,2013-05-26 18:58:00
3:58 PM,70.9,39.0,31,30.17,10.0,NW,10.4,-,N/A,,Clear,310,2013-05-26 19:58:00
4:58 PM,71.4,41.2,33,30.16,10.0,NW,10.4,-,N/A,,Clear,320,2013-05-26 20:58:00
5:58 PM,71.4,40.5,33,30.16,10.0,NW,9.2,-,N/A,,Clear,320,2013-05-26 21:58:00
6:58 PM,70.3,41.7,35,30.17,10.0,NW,5.8,-,N/A,,Clear,310,2013-05-26 22:58:00
7:58 PM,68.2,45.3,44,30.18,10.0,WSW,2.3,-,N/A,,Clear,240,2013-05-26 23:58:00
8:58 PM,60.6,46.4,59,30.19,10.0,SE,2.3,-,N/A,,Clear,140,2013-05-27 00:58:00
9:58 PM,57.2,46.6,68,30.21,10.0,East,1.2,-,N/A,,Clear,80,2013-05-27 01:58:00
10:58 PM,56.7,48.6,74,30.21,10.0,East,2.3,-,N/A,,Clear,80,2013-05-27 02:58:00
11:58 PM,57.6,50.2,76,30.23,10.0,Calm,Calm,-,N/A,,Clear,0,2013-05-27 03:58:00